This is the latest recevied weather packets stored in our database for station/object SR9WXP. If no packets are shown the sender has not sent any weather packets the latest 1 day(s).
| Time | Temp. | Humidity | Pressure | Rain* | Wind** | Luminosity | Snow |
|---|---|---|---|---|---|---|---|
| 1778006795 | 10° C | 53% | 850.9 hPa | - | 2.68 m/s, 171° | - | - |
| 1778006676 | 10° C | 53% | 850.9 hPa | - | 2.68 m/s, 171° | - | - |
| 1778006556 | 10° C | 52% | 850.9 hPa | - | 3.13 m/s, 173° | - | - |
| 1778006495 | 10° C | 52% | 850.9 hPa | - | 2.68 m/s, 174° | - | - |
| 1778006436 | 10° C | 52% | 850.9 hPa | - | 2.68 m/s, 176° | - | - |
| 1778006315 | 10° C | 52% | 851 hPa | - | 3.13 m/s, 180° | - | - |
| 1778006192 | 10° C | 52% | 851 hPa | - | 3.13 m/s, 176° | - | - |
| 1778006073 | 10° C | 52% | 851 hPa | - | 3.13 m/s, 173° | - | - |
| 1778005892 | 10° C | 52% | 851 hPa | - | 3.58 m/s, 182° | - | - |
| 1778005833 | 10° C | 52% | 851 hPa | - | 3.58 m/s, 182° | - | - |
| 1778005589 | 10.56° C | 52% | 851.1 hPa | - | 2.68 m/s, 181° | - | - |
| 1778005470 | 10.56° C | 52% | 851.1 hPa | - | 3.58 m/s, 183° | - | - |
| 1778005350 | 10.56° C | 52% | 851.1 hPa | - | 2.68 m/s, 178° | - | - |
| 1778005289 | 10.56° C | 52% | 851.1 hPa | - | 2.68 m/s, 172° | - | - |
| 1778005230 | 10.56° C | 52% | 851.1 hPa | - | 2.68 m/s, 178° | - | - |
| 1778005110 | 10.56° C | 52% | 851 hPa | - | 3.13 m/s, 177° | - | - |
| 1778004986 | 10.56° C | 52% | 851.1 hPa | - | 2.68 m/s, 181° | - | - |
| 1778004868 | 10.56° C | 52% | 851.1 hPa | - | 3.58 m/s, 176° | - | - |
| 1778004747 | 10.56° C | 51% | 851.1 hPa | - | 2.68 m/s, 171° | - | - |
| 1778004686 | 10.56° C | 51% | 851.1 hPa | - | 2.68 m/s, 176° | - | - |
| 1778004627 | 10.56° C | 51% | 851.1 hPa | - | 3.58 m/s, 180° | - | - |
| 1778004507 | 10.56° C | 51% | 851.1 hPa | - | 4.02 m/s, 177° | - | - |
| 1778004382 | 10.56° C | 51% | 851.1 hPa | - | 3.58 m/s, 177° | - | - |
| 1778004264 | 10.56° C | 51% | 851.1 hPa | - | 2.68 m/s, 172° | - | - |
| 1778004144 | 10.56° C | 51% | 851.1 hPa | - | 2.68 m/s, 178° | - | - |
* Rain since midnight (hover to see other rain measurements)
** Current wind speed in m/s (hover to see current wind gust speed)